Location: Prague
(50.0830°N, 14.4670°E)
Time: 23:51:32
(UTC+02:00)

N. Korean satellite - Pass Details

Date: 03 October 2021
Orbit: 450 x 494 km, 97.3° (Epoch: 28 October)

Event Time Altitude Azimuth Distance (km) Brightness Sun altitude
Rises 06:25:28 0° 13° (NNE) 2,555 10.4 -7.2°
Reaches altitude 10° 06:27:31 10° 14° (NNE) 1,677 9.5 -6.9°
Maximum altitude 06:31:08 83° 102° (ESE) 500 6.7 -6.3°
Drops below altitude 10° 06:34:46 10° 191° (SSW) 1,683 9.2 -5.7°
Sets 06:36:51 0° 193° (SSW) 2,564 10.1 -5.4°
